Ballenas Island, British Columbia

11:45 AM PDT on July 26, 2017 (GMT -0700)
Ballenas Island

Weather History for CWGB - February, 2013

Change the Weather History Date:

Monday, February 4, 2013

  Actual Average Record
Temperature  
Mean Temperature 43 °F -  
Max Temperature 45 °F - - ()
Min Temperature 41 °F - - ()
Degree Days  
Heating Degree Days 22    
Moisture  
Dew Point 42 °F    
Average Humidity 91    
Maximum Humidity 95    
Minimum Humidity 82    
Precipitation  
Precipitation 0.00 in - - ()
Sea Level Pressure  
Sea Level Pressure 29.99 in    
Wind  
Wind Speed 16 mph ()    
Max Wind Speed 24 mph    
Max Gust Speed 30 mph    
T = Trace of Precipitation, MM = Missing Value Source: Averaged Metar Reports

Daily Weather History Graph

Daily Weather History Graph

Search for Another Location

Airport or City:

Trip Planner

Search our weather history database for the weather conditions in past years. The results will help you decide how hot, cold, wet, or windy it might be!

Date:

Astronomy

Feb. 04, 2013 Rise Set
Actual Time 7:43 AM PST 5:18 PM PST
Civil Twilight 7:09 AM PST 5:52 PM PST
Nautical Twilight 6:31 AM PST 6:30 PM PST
Astronomical Twilight 5:54 AM PST 7:07 PM PST
Moon 2:32 AM PST (2/4) 11:38 AM PST (2/4)
Length of Visible Light 10h 43m
Length of Day
9h 35m
Last Quarter, 36% of the Moon is Illuminated
Feb 4
Last Quarter
Feb 9
New
Feb 17
First Quarter
Feb 25
Full
Mar 4
Last Quarter

Hourly Weather History & Observations

Time (PST) Temp. Windchill Dew Point Humidity Pressure Visibility Wind Dir Wind Speed Gust Speed Precip Events Conditions
12:00 AM 43.3 °F 35.2 °F 41.9 °F 95% 30.11 in - ESE 18.4 mph - N/A   Unknown
1:00 AM 43.7 °F 36.0 °F 42.1 °F 94% 30.09 in - ESE 17.3 mph - N/A   Unknown
3:00 AM 43.7 °F 36.3 °F 42.1 °F 94% 30.09 in - ESE 16.1 mph - N/A   Unknown
4:00 AM 44 °F - 42 °F 90% 30.07 in - ESE 15.0 mph - -  
4:00 AM 43.7 °F 36.6 °F 42.1 °F 94% 30.07 in - ESE 15.0 mph - N/A   Unknown
5:00 AM 43.3 °F 35.5 °F 41.7 °F 94% 30.07 in - ESE 17.3 mph - N/A   Unknown
6:00 AM 43.5 °F 35.8 °F 41.9 °F 94% 30.05 in - ESE 17.3 mph - N/A   Unknown
7:00 AM 43.9 °F 35.9 °F 42.3 °F 94% 30.05 in - ESE 18.4 mph - N/A   Unknown
8:00 AM 43.9 °F 36.2 °F 42.1 °F 93% 30.05 in - ESE 17.3 mph - N/A   Unknown
9:00 AM 44.1 °F 38.6 °F 42.4 °F 94% 30.06 in - ESE 10.4 mph - N/A   Unknown
10:00 AM 44 °F - 42 °F 89% 30.05 in - ESE 16.1 mph - -  
10:00 AM 43.7 °F 36.3 °F 41.7 °F 93% 30.05 in - ESE 16.1 mph - N/A   Unknown
11:00 AM 44.4 °F 36.9 °F 42.4 °F 93% 30.06 in - East 17.3 mph - N/A   Unknown
12:00 PM 44.4 °F 37.2 °F 42.6 °F 93% 30.04 in - East 16.1 mph - N/A   Unknown
1:00 PM 45.0 °F 37.6 °F 42.8 °F 92% 30.03 in - East 17.3 mph - N/A   Unknown
2:00 PM 45.1 °F 37.1 °F 42.4 °F 90% 30.01 in - East 20.7 mph - N/A   Unknown
3:00 PM 44.8 °F 35.9 °F 42.4 °F 91% 29.98 in - East 24.2 mph - N/A   Unknown
4:00 PM 45 °F - 42 °F 86% 29.97 in - East 24.2 mph - -  
4:00 PM 44.8 °F 35.9 °F 42.3 °F 91% 29.97 in - East 24.2 mph - N/A   Unknown
5:00 PM 44.8 °F 36.2 °F 42.1 °F 90% 29.95 in - ESE 23.0 mph - N/A   Unknown
6:00 PM 45.0 °F 36.6 °F 41.9 °F 89% 29.91 in - ESE 21.9 mph - N/A   Unknown
7:00 PM 45.0 °F 36.6 °F 41.9 °F 89% 29.90 in - ESE 21.9 mph - N/A   Unknown
8:00 PM 45.0 °F 36.4 °F 41.5 °F 88% 29.88 in - ESE 23.0 mph 29.9 mph N/A   Unknown
9:00 PM 44.8 °F 35.9 °F 41.7 °F 89% 29.84 in - ESE 24.2 mph - N/A   Unknown
10:00 PM 45 °F - 41 °F 82% 29.83 in - ESE 17.3 mph - -  
10:00 PM 45.0 °F 37.6 °F 41.4 °F 87% 29.83 in - ESE 17.3 mph 23.0 mph N/A   Unknown
11:00 PM 44.8 °F 36.6 °F 41.4 °F 88% 29.80 in - ESE 20.7 mph - N/A   Unknown